Flag for United Kingdom Weather past 2 weeks in Newport (Isle of Wight), England, United Kingdom

Now
73 °F

Mild.


Feels Like: 76 °F
Forecast: 63 / 74 °F
Wind: 13 mph from Northeast

Location: Solent M. R. S. C.

Current Time: Sep 17, 2014 at 4:35:32 PM

Latest Report: Sep 17, 2014 at 4:00 PM


Visibility: N/A

Pressure: 29.80 "Hg

Humidity: 65%

Dew point: 60 °F

Location of Newport (Isle of Wight)Location

Historic Weather in Newport (Isle of Wight) — Graph

°F

Newport (Isle of Wight) temperature yesterday

Maximum temperature yesterday: 74 °F (at 5:00 PM)
Minimum temperature yesterday: 57 °F (at 3:00 AM)
Average temperature yesterday: 65 °F

Past Weeks' High & Low Weather Summary

 TemperatureHumidityPressure
High74 °F (Sep 7, 4:00 PM)98% (Sep 7, 9:00 AM)30.30 "Hg (Sep 7, 9:00 AM)
Low51 °F (Sep 11, 5:00 AM)49% (Sep 8, 1:00 PM)29.81 "Hg (Sep 17, 3:00 PM)
Average63 °F79%30.09 "Hg
* Reported Sep 2 3:00 PM — Sep 17 3:00 PM, Newport (Isle of Wight), Weather by CustomWeather, © 2014

Note: Actual official high and low records may vary slightly from our data, if they occured in-between our weather recording intervals... More about our weather records

Advertising

Newport (Isle of Wight) weather history for previous 24 hours

 ConditionsComfort  
Time TempWeatherWind HumidityBarometerVisibility
3:00 PM
Sep 17
73 °FMild.14 mph64%29.81 "HgN/A
2:00 PM74 °FMild.15 mph60%29.82 "HgN/A
1:00 PM73 °FMild.14 mph60%29.83 "HgN/A
12:00 PM71 °FMild.14 mph68%29.84 "HgN/A
11:00 AM70 °FMild.16 mph71%29.85 "HgN/A
10:00 AM66 °FMild.17 mph81%29.85 "HgN/A
9:00 AM63 °FMild.20 mph86%29.85 "HgN/A
8:00 AM61 °FCool.17 mph91%29.85 "HgN/A
7:00 AM60 °FCool.16 mph92%29.85 "HgN/A
6:00 AM60 °FCool.15 mph90%29.85 "HgN/A
5:00 AM61 °FCool.14 mph90%29.86 "HgN/A
4:00 AM61 °FCool.13 mph91%29.86 "HgN/A
3:00 AM61 °FCool.14 mph90%29.87 "HgN/A
2:00 AM62 °FCool.13 mph86%29.88 "HgN/A
1:00 AM63 °FMild.13 mph80%29.89 "HgN/A
12:00 AM63 °FMild.13 mph79%29.89 "HgN/A
11:00 PM
Sep 16
64 °FMild.10 mph80%29.90 "HgN/A
10:00 PM65 °FMild.10 mph77%29.90 "HgN/A
9:00 PM66 °FMild.7 mph73%29.90 "HgN/A
8:00 PM68 °FMild.8 mph65%29.90 "HgN/A
7:00 PM70 °FMild.7 mph63%29.89 "HgN/A
6:00 PM72 °FMild.10 mph58%29.89 "HgN/A
5:00 PM74 °FMild.10 mph58%29.90 "HgN/A
4:00 PM73 °FMild.14 mph60%29.91 "HgN/A
Weather by CustomWeather, © 2014

See weather overviewHow to use our weather pages